Tracking 27423 objects as of 9-Jun-2023
HD Live streaming from Space Station
objects crossing your sky now

SL-14 DEB

Track SL-14 DEB now!
10-day predictions


NORAD ID: 26030
Int'l Code: 1991-068AU
Perigee: 1,337.2 km
Apogee: 1,466.6 km
Inclination: 82.7 °
Period: 113.7 minutes
Semi major axis: 7772 km
RCS: 0.0026 m2 (small)
Launch date: September 28, 1991
Source: Commonwealth of Independent States (former USSR) (CIS)
Launch site: PLESETSK MISSILE AND SPACE COMPLEX (PKMTR)

Note: This is SATELLITE DEBRIS
Your satellite tracking list
Your tracking list is empty




NASA's NSSDC Master Catalog

Two Line Element Set (TLE):
1 26030U 91068AU  23158.85501453  .00000153  00000-0  74347-3 0  9992
2 26030  82.6787  19.9020 0083206 294.8847  76.3682 12.66855087452622
Source of the keplerian elements: AFSPC